Theta_e
277 276 274 272 272 273 275 274 272 272 275 274 274 274 276 279 278 277 276 276 277 278 280 281 281 282 281 281 281 281 281 281 282 282 282 282 281 282 282 282 283 283 283 283
275 271 271 274 274 274 273 272 270 272 275 274 272 273 275 277 279 279 277 277 277 277 278 280 280 280 281 281 280 281 281 280 281 282 282 282 282 282 281 282 282 282 282 282
272 271 276 276 273 275 271 271 269 271 273 272 271 271 272 274 277 278 279 279 278 278 278 278 278 279 279 279 280 280 281 281 280 281 281 281 281 281 280 280 280 281 281 281
271 273 275 273 272 273 273 272 273 272 271 269 270 268 271 271 273 276 278 277 277 277 278 278 278 278 279 279 280 281 281 281 280 280 280 279 278 278 278 279 280 280 281 280
270 270 271 271 273 274 272 273 273 273 270 268 268 267 270 271 272 274 277 278 277 278 278 278 279 280 279 280 280 280 280 280 280 279 279 278 278 279 279 279 279 279 280 280
270 272 271 271 274 274 275 273 273 270 269 263 266 267 270 271 272 274 277 278 278 277 277 278 279 279 279 280 280 279 280 279 280 279 278 278 278 278 278 278 278 278 279 279
270 270 270 274 271 274 273 269 265 263 261 265 266 265 271 274 274 275 275 278 278 278 277 277 277 277 278 279 279 279 279 279 279 279 278 278 278 277 277 277 277 277 277 278
266 266 269 272 270 269 270 267 265 260 263 265 268 266 273 274 275 275 277 277 278 277 278 278 277 278 278 280 279 279 279 279 279 278 278 278 278 278 278 277 277 277 277 277
263 267 270 273 272 270 268 267 268 261 259 261 267 270 275 275 275 274 276 275 275 277 277 278 277 278 278 279 279 279 279 279 279 278 278 278 278 277 278 277 277 278 277 278
269 264 270 271 270 270 269 271 266 264 259 257 265 264 270 273 274 274 274 274 275 275 276 277 277 277 278 278 278 278 279 279 280 279 278 278 278 278 278 277 277 277 277 277
263 267 266 269 265 267 266 265 265 266 263 261 260 267 269 271 274 274 274 275 275 275 276 277 278 278 278 278 277 278 278 278 279 279 279 278 278 278 278 278 278 277 277 277
268 265 261 265 266 268 266 265 266 264 261 260 262 266 274 274 275 274 275 277 275 275 275 276 276 276 276 277 277 277 277 278 279 279 279 279 279 278 278 277 278 277 276 276
267 263 258 265 264 266 261 267 269 265 265 260 261 268 273 273 274 274 275 276 276 275 274 275 275 276 276 276 277 277 277 277 278 278 279 278 278 277 277 277 277 277 276 275
273 257 263 264 265 262 259 260 268 263 258 263 267 270 274 273 273 273 274 276 275 276 276 275 275 276 276 277 276 276 276 277 278 278 277 277 277 277 277 277 277 276 276 274
267 261 256 259 263 262 261 260 264 264 267 265 271 270 268 272 271 273 273 274 276 276 276 276 276 276 276 276 276 276 276 276 277 277 277 277 278 277 277 276 276 276 275 275
262 258 256 257 265 266 262 262 263 268 267 267 269 268 275 276 270 272 274 275 276 276 277 277 278 278 278 277 275 277 275 276 276 276 276 277 277 277 276 276 276 275 275 274
261 258 256 257 263 263 261 260 265 265 261 269 265 273 271 269 273 273 274 274 275 276 277 277 277 277 278 277 278 275 274 273 274 274 276 277 277 276 276 276 275 274 273 273
258 255 253 255 257 256 267 266 265 268 269 268 269 271 268 269 270 272 273 274 275 276 277 277 277 277 277 276 276 275 276 275 275 276 276 276 276 275 276 274 274 273 273 272
264 259 252 257 250 264 267 264 264 264 267 268 270 272 268 266 267 271 274 274 274 275 276 276 276 274 275 276 276 276 276 276 275 275 275 275 275 274 274 273 272 272 271 269
266 263 259 249 254 255 263 264 265 265 263 265 267 268 268 267 266 269 271 273 275 276 276 276 275 275 275 275 275 275 274 272 271 273 274 273 272 273 273 273 271 270 268 268
260 255 258 249 254 260 265 267 266 262 266 267 268 268 267 268 270 269 272 271 275 276 276 275 275 274 274 274 274 273 272 270 272 271 271 271 271 271 272 271 269 268 266 266
261 258 254 254 252 258 268 268 267 269 266 269 267 268 269 270 270 271 271 271 272 272 272 272 272 271 270 270 271 269 268 270 268 268 268 269 269 270 271 269 268 266 265 264
262 266 263 264 265 267 270 272 272 268 268 269 269 270 271 271 271 271 269 269 267 267 268 268 268 267 262 265 267 266 267 267 266 265 265 266 267 268 269 267 266 265 264 264
265 265 264 265 266 270 271 273 272 270 269 269 269 269 267 268 269 269 269 267 267 267 265 266 266 265 264 264 265 265 265 264 262 262 263 265 264 264 263 266 266 265 263 262
266 266 264 264 268 270 268 266 267 268 267 267 267 266 265 266 265 265 265 264 264 264 264 264 263 263 263 263 262 263 263 262 261 261 262 263 264 262 263 264 264 265 265 265
267 265 267 268 267 268 265 264 266 265 264 265 265 264 264 263 262 263 262 262 262 262 262 261 261 261 261 261 261 261 260 260 258 259 262 263 264 264 263 263 264 269 271 272
Wind_Speed
5 7 2 1 2 3 6 3 2 2 1 2 6 8 8 11 10 10 9 9 9 9 6 6 6 5 4 3 3 4 5 6 5 3 2 2 4 5 8 8 11 12 12 13
6 3 1 2 2 3 2 2 3 2 1 1 5 13 13 13 16 18 15 13 12 6 7 7 6 5 5 4 3 3 4 4 4 2 1 1 1 3 4 6 9 10 11 12
4 2 1 2 2 3 2 2 2 2 3 1 6 9 6 4 5 9 13 13 11 14 13 9 8 7 6 5 5 4 3 3 3 4 2 2 2 2 3 6 6 8 10 10
5 2 0 2 4 1 2 1 2 1 3 4 3 8 7 3 5 9 17 15 13 13 9 7 10 8 8 7 5 4 4 3 3 3 4 5 3 3 2 3 4 6 8 10
1 2 3 2 1 2 3 2 3 2 3 3 1 1 8 2 7 16 17 16 15 15 14 13 13 11 7 7 7 6 4 3 3 3 4 3 4 2 1 2 5 6 6 8
3 1 2 3 2 3 5 4 4 4 3 3 2 2 8 6 7 5 9 16 17 14 13 11 9 8 6 6 6 6 5 4 4 3 3 3 3 2 2 3 4 4 4 5
2 2 2 2 5 5 3 4 4 6 5 6 2 0 14 9 7 6 6 14 16 14 13 11 11 10 8 9 8 6 6 5 5 4 3 3 2 1 1 2 2 4 3 3
5 6 2 3 3 5 1 4 6 7 3 4 2 8 11 7 2 4 4 6 10 15 14 13 13 11 10 9 8 7 6 6 5 6 5 5 4 2 2 2 1 1 1 2
6 2 1 3 2 3 3 2 2 8 2 4 5 10 11 2 5 6 4 4 9 11 13 14 11 11 10 8 8 9 7 6 6 7 6 6 5 5 4 4 3 2 1 2
6 3 1 2 2 3 5 4 5 4 1 5 6 7 8 6 8 9 5 6 6 6 10 11 10 11 9 8 6 6 7 9 7 7 6 6 7 6 5 4 4 4 3 2
3 5 1 3 5 8 2 1 3 3 4 5 2 9 8 5 3 7 9 7 7 9 11 11 11 9 8 5 6 7 7 7 7 6 6 6 6 6 6 6 5 5 4 3
4 5 4 7 1 3 3 6 5 7 6 2 1 12 1 6 7 5 8 6 4 7 9 8 8 8 7 7 6 7 6 7 7 6 6 6 5 6 6 6 6 5 5 4
6 2 3 7 5 4 2 5 4 4 3 7 5 9 3 4 6 6 5 6 4 6 7 8 8 8 7 6 6 6 6 7 6 5 5 4 4 5 7 7 6 6 5 4
5 3 7 9 7 4 2 3 5 7 4 5 12 14 14 7 10 7 7 6 5 6 8 6 6 7 6 6 6 7 6 6 6 5 5 5 4 5 6 6 6 6 6 5
5 5 3 4 4 3 6 6 8 10 11 9 9 16 3 7 6 4 3 3 5 6 5 6 6 5 6 6 6 6 5 5 6 6 5 5 4 4 4 5 6 6 7 6
4 3 3 5 2 5 7 4 11 16 6 15 15 25 18 15 5 6 9 7 7 7 8 7 7 7 8 7 6 6 5 6 6 5 6 4 4 4 5 5 6 7 7 7
4 6 4 7 3 4 10 13 19 6 5 10 11 21 2 4 3 6 7 6 9 8 7 8 8 7 6 6 5 6 6 4 4 4 4 4 5 5 5 5 5 7 8 7
7 6 3 4 4 3 7 5 7 13 6 16 12 13 4 4 5 9 9 7 8 7 8 6 6 5 4 4 4 4 4 4 5 5 4 5 5 6 5 5 7 7 5 8
3 5 3 4 4 9 3 5 8 9 10 10 17 16 2 3 5 8 5 8 6 6 6 5 5 4 4 5 3 4 3 3 2 4 5 5 5 5 6 8 8 6 5 5
4 4 6 3 5 9 8 4 4 4 6 4 5 5 4 2 3 6 8 5 3 3 2 4 5 3 4 4 3 3 2 3 4 5 6 5 5 7 8 9 7 4 4 6
4 1 7 3 5 11 7 4 4 8 10 2 4 3 4 4 6 5 7 6 2 3 6 6 7 8 7 6 6 6 5 6 5 6 6 6 7 8 9 6 4 4 5 4
10 10 6 4 2 12 8 5 7 6 1 3 3 4 3 6 7 5 5 7 9 10 11 11 8 8 8 9 8 7 4 6 6 6 8 9 9 7 6 6 4 3 4 5
4 10 9 13 11 4 8 1 2 2 3 0 0 0 3 4 5 6 5 7 8 8 9 9 7 6 5 7 7 7 7 8 9 8 8 8 8 8 6 5 4 3 4 4
5 4 3 2 5 12 5 1 4 5 3 6 5 6 6 4 7 7 7 8 8 9 9 8 8 8 7 8 9 7 8 8 8 9 10 8 7 8 4 3 3 4 4 4
5 8 7 6 5 2 3 5 4 6 8 8 9 9 9 7 8 8 8 9 8 9 9 8 9 8 9 9 8 8 9 8 8 9 9 8 6 6 5 5 5 5 4 6
6 9 7 8 3 2 4 5 6 7 8 8 7 8 11 10 9 8 7 8 8 9 9 9 9 9 9 10 10 9 8 8 8 9 7 7 7 5 5 5 5 12 17 17
Wind_Direction
15 72 100 71 45 94 120 134 221 244 339 289 247 266 235 203 213 207 199 202 206 207 201 185 188 174 153 128 101 71 62 34 37 41 29 31 45 38 41 38 33 30 27 27
36 94 166 125 76 96 97 118 247 297 316 242 333 273 249 202 221 207 195 204 204 191 187 195 193 191 192 170 154 124 99 73 56 69 105 116 105 54 46 36 37 31 30 30
102 110 269 153 88 129 82 171 197 254 332 153 326 278 267 248 223 199 207 203 200 191 190 196 194 195 188 196 186 157 133 106 76 62 88 90 91 70 29 28 32 27 29 30
85 293 92 82 83 21 170 47 91 69 34 266 11 288 297 263 253 218 209 199 195 194 193 187 192 193 195 202 186 180 167 143 108 73 76 76 81 78 45 22 26 32 32 31
175 76 77 63 69 311 157 156 115 93 101 356 335 290 266 11 259 231 213 203 200 198 189 193 195 197 195 181 187 186 181 175 146 112 101 91 84 78 52 31 35 32 32 32
100 122 70 117 48 353 147 90 59 61 76 5 314 145 275 220 225 269 204 202 201 193 193 195 194 183 189 188 183 185 190 199 178 158 136 112 94 82 49 33 30 22 18 26
59 53 33 72 86 359 39 58 352 354 12 227 305 43 253 272 237 230 223 205 198 186 187 189 186 191 193 192 194 192 195 213 199 194 192 188 181 152 48 23 16 7 9 9
137 322 26 4 99 170 138 144 158 207 207 272 4 242 253 219 331 260 271 219 190 185 187 189 193 192 195 196 192 194 195 218 206 203 213 207 210 204 208 208 223 317 338 341
118 180 290 51 82 100 217 191 209 96 55 41 231 286 298 264 286 275 273 193 196 196 185 188 189 193 193 191 198 198 199 217 214 210 210 210 209 209 213 209 211 234 257 297
192 66 351 138 131 41 140 177 80 4 220 278 285 280 243 306 340 345 308 251 231 204 192 190 189 194 195 194 192 191 199 209 210 205 204 210 210 213 212 205 218 219 236 256
131 99 329 30 205 175 91 165 54 127 143 191 274 263 215 222 295 301 300 269 215 202 198 194 193 196 186 177 187 199 202 208 213 205 205 209 215 214 211 216 218 218 218 233
212 133 170 212 17 25 144 189 154 132 241 235 142 271 294 248 264 277 300 295 231 208 195 186 187 181 177 191 193 202 205 209 216 208 204 215 220 217 217 220 218 212 217 209
200 284 29 339 356 3 201 205 153 98 102 188 157 270 191 271 288 271 288 296 246 197 184 180 174 188 188 198 204 208 212 218 215 201 205 216 226 223 227 220 215 212 208 213
106 96 170 190 202 129 179 249 189 134 128 203 219 272 250 290 282 299 303 302 275 231 196 176 182 201 196 207 211 214 222 210 205 194 201 231 228 225 228 217 209 210 206 207
117 187 164 260 219 176 202 178 181 197 211 186 280 231 135 227 248 300 314 284 269 247 219 205 194 198 209 217 219 224 220 201 197 190 216 245 250 234 228 211 209 207 207 214
343 184 115 300 261 224 268 162 214 219 235 259 267 282 264 265 251 285 269 253 246 234 209 192 199 196 204 208 206 211 204 210 189 195 239 262 251 237 224 214 212 208 212 211
132 132 96 265 333 331 295 207 200 190 225 205 206 242 30 326 259 268 273 250 241 227 200 190 194 196 195 199 186 196 202 170 173 212 250 260 248 246 238 224 218 219 213 202
134 102 79 234 9 294 246 162 173 205 231 220 268 264 177 228 248 260 244 242 250 226 194 197 187 179 182 164 170 145 142 162 199 237 266 261 256 253 253 227 227 225 202 210
100 115 85 144 201 299 276 195 164 162 274 216 232 262 291 278 328 294 275 221 230 224 207 196 170 172 164 145 132 137 145 189 236 273 290 297 294 269 251 238 232 218 200 200
80 67 119 104 162 229 244 240 165 136 297 233 188 244 201 91 49 269 338 320 219 155 80 133 127 112 73 44 80 77 350 4 342 328 300 295 284 266 259 249 228 202 196 207
130 354 192 184 231 288 233 204 153 92 235 190 179 216 160 181 200 256 344 356 17 42 88 68 61 62 43 31 36 38 21 8 332 310 295 290 280 269 262 248 206 200 197 185
163 152 188 90 104 278 160 90 188 211 318 163 205 166 188 255 294 322 20 23 29 46 45 37 53 51 34 33 34 21 3 332 305 304 301 295 290 286 271 229 214 205 181 199
233 186 179 189 206 229 205 61 150 136 143 9 147 329 260 297 357 32 55 49 43 42 38 29 31 37 25 28 30 359 336 329 322 316 302 297 294 291 265 228 212 202 194 211
241 173 193 103 235 229 219 223 66 27 45 41 30 49 41 47 41 44 42 34 32 30 27 14 18 21 14 17 3 343 329 330 320 313 308 306 304 303 277 262 223 211 204 218
175 139 177 266 275 256 120 59 15 57 50 48 58 54 40 45 48 33 38 29 24 18 16 15 10 4 357 351 342 339 340 333 328 321 312 306 305 297 291 253 235 238 224 218
189 179 178 239 160 135 95 68 47 66 50 47 52 57 53 44 42 32 37 24 11 4 6 3 356 347 339 333 326 331 334 340 334 327 324 320 314 305 287 276 276 257 252 247